Regional Weather Roundup
Issued by NWS

Home | Current Version | Previous Version | Text Only | Print | Product List | Glossary On
Versions: 1 2 3 4 5 6 7 8 9 10 11 12 13 14 15 16 17 18 19 20 21 22 23 24 25 26 27 28 29 30 31 32 33 34 35 36 37 38 39 40 41 42 43 44 45 46 47 48 49 50
000
ASUS45 KABQ 021810
RWRNM
NEW MEXICO REGIONAL WEATHER ROUNDUP
NATIONAL WEATHER SERVICE ALBUQUERQUE NM
1100 AM MST FRI DEC 02 2016

NOTE: "FAIR" MEANS FEW OR NO CLOUDS BELOW 12,000 FEET AGL WITH NO
       SIGNIFICANT WEATHER OR OBSTRUCTIONS TO VISION.

      THIS PRODUCT IS RELEASED AS TWO VERSIONS.  ONE VERSION NEAR
      THE TOP OF THE HOUR CONTAINING PRELIMINARY DATA FROM ALBUQUERQUE
      AND OTHER STATIONS.  A FINAL VERSION WITH ADDITIONAL DATA IS
      ISSUED ABOUT 10 MINUTES AFTER THE HOUR.

NMZ501-503-504-510>518-021900-
NORTHWEST PLATEAU/NORTHCENTRAL MOUNTAINS

CITY           SKY/WX    TMP DP  RH WIND       PRES   REMARKS
FARMINGTON     FAIR      36  21  54 NE3       30.00S
6HR MIN TEMP:  22; 6HR MAX TEMP:  36;

LOS ALAMOS     FOG       26  26 100 NE3       30.06F VSB<1/4
SANTA FE       FAIR      35  27  72 N10       30.04F WCI  27
6HR MIN TEMP:  25; 6HR MAX TEMP:  36; 6HR PCP:  0.01;

TAOS           PTSUNNY   27  16  63 N6        30.07F WCI  20
ANGEL FIRE     LGT SNOW  22  18  84 NE6       30.10F WCI  15

$$
NMZ402-403-502-505>509-021900-
WESTCENTRAL MOUNTAINS/SOUTHWEST MOUNTAINS

CITY           SKY/WX    TMP DP  RH WIND       PRES   REMARKS
GALLUP         PTSUNNY   38  19  46 N9        29.97S WCI  31
6HR MIN TEMP:  20; 6HR MAX TEMP:  38;

GRANTS         FAIR      37  27  66 SE16G25   29.99F WCI  28

$$
NMZ407-409-411-412-021900-
SOUTHERN DESERTS

CITY           SKY/WX    TMP DP  RH WIND       PRES   REMARKS
DEMING         FAIR      54  21  27 NE5       29.96F
6HR MIN TEMP:  27; 6HR MAX TEMP:  55;

LAS CRUCES     PTSUNNY   52  24  33 CALM      29.98S
HOLLOMAN AFB   FAIR      52  23  31 CALM      29.99F
T OR C         FAIR      49  17  28 NE5       29.97S
6HR MIN TEMP:  30; 6HR MAX TEMP:  49;


$$
NMZ519>523-021900-
CENTRAL VALLEYS/CENTRAL HIGHLANDS

CITY           SKY/WX    TMP DP  RH WIND       PRES   REMARKS
ALBUQUERQUE    FAIR      47  14  26 E18G26    30.00F
6HR MIN TEMP:  31; 6HR MAX TEMP:  47; 6HR PCP: TRACE;

DOUBLE EAGLE   PTSUNNY   43  19  39 E13G20    30.02F
MORIARTY ARPT  FAIR      40  12  31 E15G22    30.08S WCI  32
6HR MIN TEMP:  25; 6HR MAX TEMP:  40;

CLINES CORNERS FAIR      32  13  45 E25G32    30.06F WCI  19
6HR MIN TEMP:  24; 6HR MAX TEMP:  32;

BELEN          FAIR      46  16  30 SW6       30.01S
6HR MIN TEMP:  30; 6HR MAX TEMP:  46;

SOCORRO        FAIR      47  16  29 N7        30.00S
6HR MIN TEMP:  30; 6HR MAX TEMP:  47;


$$
NMZ524>526-539-540-021900-
SOUTHCENTRAL MOUNTAINS

CITY           SKY/WX    TMP DP  RH WIND       PRES   REMARKS
RUIDOSO        PTSUNNY   41  16  36 SE8       30.04F

$$
NMZ527>531-021900-
NORTHEAST HIGHLANDS/NORTHEAST PLAINS

CITY           SKY/WX    TMP DP  RH WIND       PRES   REMARKS
LAS VEGAS      CLOUDY    32  12  43 NE12      30.12F WCI  23
6HR MIN TEMP:  20; 6HR MAX TEMP:  32;

RATON          CLOUDY    32  16  51 NW5       30.14S WCI  27
6HR MIN TEMP:  18; 6HR MAX TEMP:  32; 6HR PCP: TRACE;

CLAYTON        CLOUDY    39  20  46 E15       30.17R WCI  31
6HR MIN TEMP:  26; 6HR MAX TEMP:  40;


$$
NMZ532>537-021900-
EASTCENTRAL PLAINS

CITY           SKY/WX    TMP DP  RH WIND       PRES   REMARKS
TUCUMCARI      CLOUDY    41  18  39 E9        30.13F
6HR MIN TEMP:  25; 6HR MAX TEMP:  42;

CANNON AFB     CLOUDY    40  24  52 E13       30.09S WCI  33
6HR MIN TEMP:  30; 6HR MAX TEMP:  40;

CLOVIS AIRPORT CLOUDY    41  23  48 E17       30.09F

$$
NMZ028-029-538-021900-
SOUTHEAST PLAINS

CITY           SKY/WX    TMP DP  RH WIND       PRES   REMARKS
ROSWELL        FAIR      47  24  40 N12       30.05F
6HR MIN TEMP:  33; 6HR MAX TEMP:  47;

ARTESIA        PTSUNNY   46  27  46 N13       30.04F
CARLSBAD       FAIR      46  23  40 NW15      30.02F
6HR MIN TEMP:  33; 6HR MAX TEMP:  47;

HOBBS          FOG       41  41 100 NE12      30.04F VSB 1/4


$$




USA.gov is the U.S. government's official web portal to all federal, state and local government web resources and services.